Location: Waco, TX
(31.5480°N, 97.1670°W)
Time: 15:49:36
(UTC-05:00)

ISS - Pass Details

Date: 17 August 2019
Orbit: 410 x 421 km, 51.6° (Epoch: 22 August)

Event Time Altitude Azimuth Distance (km) Brightness Sun altitude
Rises 08:46:32 0° 204° (SSW) 2,333 -0.2 22.5°
Reaches altitude 10° 08:48:45 10° 193° (SSW) 1,477 -1.1 23.0°
Maximum altitude 08:51:42 30° 130° (SE) 768 -1.4 23.6°
Drops below altitude 10° 08:54:41 10° 66° (ENE) 1,490 0.4 24.3°
Sets 08:56:56 0° 56° (NE) 2,358 0.9 24.7°
